Slayton, MN

7:21 AM CDT on July 22, 2017 (GMT -0500)
Slayton

Weather History for KDVP - January, 2014

Change the Weather History Date:

Saturday, January 4, 2014

  Actual Average (KOTG) Record (KOTG)
Temperature  
Mean Temperature 14 °F -  
Max Temperature 33 °F 23 °F 42 °F (2003)
Min Temperature -4 °F 8 °F -19 °F (1976)
Degree Days  
Heating Degree Days 50    
Moisture  
Dew Point 5 °F    
Average Humidity 81    
Maximum Humidity 93    
Minimum Humidity 71    
Precipitation  
Precipitation 0.00 in - - ()
Sea Level Pressure  
Sea Level Pressure 29.94 in    
Wind  
Wind Speed 19 mph (NNW)    
Max Wind Speed 31 mph    
Max Gust Speed 38 mph    
Visibility 8 miles    
Events      
Averages and records for this station are not official NWS values.
T = Trace of Precipitation, MM = Missing Value Source: NWS Daily Summary

Daily Weather History Graph

Daily Weather History Graph

Search for Another Location

Airport or City:

Trip Planner

Search our weather history database for the weather conditions in past years. The results will help you decide how hot, cold, wet, or windy it might be!

Date:

Astronomy

Jan. 04, 2014 Rise Set
Actual Time 7:57 AM CST 4:58 PM CST
Civil Twilight 7:25 AM CST 5:31 PM CST
Nautical Twilight 6:48 AM CST 6:07 PM CST
Astronomical Twilight 6:13 AM CST 6:42 PM CST
Moon 9:55 AM CST (1/4) 9:29 PM CST (1/4)
Length of Visible Light 10h 06m
Length of Day
9h 00m
Waxing Crescent, 15% of the Moon is Illuminated
Jan 4
Waxing Crescent
Jan 7
First Quarter
Jan 15
Full
Jan 23
Last Quarter
Jan 30
New

Hourly Weather History & Observations

Time (CST) Temp. Windchill Dew Point Humidity Pressure Visibility Wind Dir Wind Speed Gust Speed Precip Events Conditions
12:05 AM 32.0 °F 20.1 °F 30.2 °F 93% 29.44 in 10.0 mi WSW 19.6 mph - N/A   Overcast
12:25 AM 33.8 °F 22.5 °F 30.2 °F 87% 29.45 in 10.0 mi WSW 19.6 mph - N/A   Mostly Cloudy
12:45 AM 33.8 °F 23.5 °F 30.2 °F 87% 29.46 in 10.0 mi WSW 16.1 mph - N/A   Scattered Clouds
1:05 AM 33.8 °F 23.9 °F 30.2 °F 87% 29.47 in 10.0 mi West 15.0 mph - N/A   Scattered Clouds
1:25 AM 33.8 °F 23.9 °F 30.2 °F 87% 29.48 in 10.0 mi West 15.0 mph - N/A   Scattered Clouds
1:45 AM 33.8 °F 24.8 °F 30.2 °F 87% 29.49 in 10.0 mi West 12.7 mph - N/A   Mostly Cloudy
2:05 AM 33.8 °F 24.8 °F 32.0 °F 93% 29.50 in 10.0 mi West 12.7 mph 17.3 mph N/A   Mostly Cloudy
2:25 AM 33.8 °F 24.8 °F 32.0 °F 93% 29.52 in 10.0 mi West 12.7 mph - N/A   Overcast
2:45 AM 24.8 °F 7.9 °F 23.0 °F 93% 29.55 in 7.0 mi NNW 29.9 mph 36.8 mph N/A   Overcast
3:05 AM 21.2 °F 4.9 °F 17.6 °F 86% 29.60 in 7.0 mi NNW 23.0 mph 32.2 mph N/A   Overcast
3:25 AM 19.4 °F 0.2 °F 15.8 °F 86% 29.60 in 7.0 mi NNW 31.1 mph 34.5 mph N/A   Overcast
3:45 AM 17.6 °F -1.3 °F 12.2 °F 79% 29.64 in 7.0 mi NNW 27.6 mph 34.5 mph N/A   Overcast
4:05 AM 15.8 °F -3.7 °F 10.4 °F 79% 29.66 in 7.0 mi NNW 27.6 mph 38.0 mph N/A   Overcast
4:25 AM 14.0 °F -5.5 °F 10.4 °F 86% 29.68 in 4.0 mi NNW 25.3 mph 31.1 mph N/A   Overcast
4:45 AM 12.2 °F -3.1 °F 8.6 °F 85% 29.71 in 3.0 mi NNW 13.8 mph 28.8 mph N/A   Overcast
5:05 AM 10.4 °F -10.7 °F 6.8 °F 85% 29.73 in 7.0 mi NNW 26.5 mph 33.4 mph N/A   Mostly Cloudy
5:25 AM 10.4 °F -8.6 °F 5.0 °F 79% 29.77 in 10.0 mi NW 20.7 mph 29.9 mph N/A   Scattered Clouds
5:45 AM 10.4 °F -9.5 °F 5.0 °F 79% 29.79 in 3.0 mi NNW 23.0 mph 34.5 mph N/A   Overcast
6:05 AM 10.4 °F -9.9 °F 6.8 °F 85% 29.80 in 2.0 mi NNW 24.2 mph 33.4 mph N/A   Overcast
6:25 AM 10.4 °F -8.6 °F 6.8 °F 85% 29.82 in 1.8 mi NNW 20.7 mph 32.2 mph N/A   Overcast
6:45 AM 8.6 °F -12.3 °F 5.0 °F 85% 29.84 in 1.5 mi NNW 24.2 mph 33.4 mph N/A   Overcast
7:05 AM 8.6 °F -13.4 °F 5.0 °F 85% 29.84 in 1.2 mi NNW 27.6 mph 33.4 mph N/A   Overcast
7:25 AM 8.6 °F -12.3 °F 5.0 °F 85% 29.87 in 2.0 mi NNW 24.2 mph 33.4 mph N/A   Overcast
7:45 AM 8.6 °F -12.3 °F 5.0 °F 85% 29.87 in 1.5 mi NNW 24.2 mph 29.9 mph N/A   Overcast
8:05 AM 8.6 °F -13.1 °F 5.0 °F 85% 29.87 in 2.5 mi NNW 26.5 mph 35.7 mph N/A   Overcast
8:25 AM 8.6 °F -13.4 °F 3.2 °F 79% 29.89 in 7.0 mi NNW 27.6 mph 33.4 mph N/A   Scattered Clouds
9:05 AM 6.8 °F -15.9 °F 1.4 °F 79% 29.92 in 4.0 mi North 27.6 mph 35.7 mph N/A   Clear
9:25 AM 6.8 °F -14.7 °F 1.4 °F 79% 29.95 in 10.0 mi North 24.2 mph 31.1 mph N/A   Clear
9:45 AM 6.8 °F -15.9 °F 1.4 °F 79% 29.96 in 10.0 mi North 27.6 mph 34.5 mph N/A   Clear
10:05 AM 8.6 °F -11.0 °F 1.4 °F 73% 29.94 in 10.0 mi North 20.7 mph - N/A   Clear
10:25 AM 8.6 °F -12.7 °F 1.4 °F 73% 29.96 in 10.0 mi North 25.3 mph 29.9 mph N/A   Clear
10:45 AM 8.6 °F -11.4 °F 1.4 °F 73% 29.98 in 10.0 mi North 21.9 mph 27.6 mph N/A   Clear
11:05 AM 8.6 °F -11.0 °F 1.4 °F 73% 29.98 in 10.0 mi North 20.7 mph 25.3 mph N/A   Clear
11:25 AM 8.6 °F -9.5 °F 1.4 °F 73% 30.00 in 10.0 mi NNW 17.3 mph 20.7 mph N/A   Clear
11:45 AM 8.6 °F -10.0 °F 3.2 °F 79% 29.99 in 10.0 mi North 18.4 mph 23.0 mph N/A   Clear
12:05 PM 8.6 °F -8.3 °F 3.2 °F 79% 29.99 in 10.0 mi NNW 15.0 mph - N/A   Scattered Clouds
12:25 PM 10.4 °F -8.2 °F 3.2 °F 73% 30.02 in 10.0 mi NNW 19.6 mph - N/A   Scattered Clouds
12:45 PM 10.4 °F -7.2 °F 5.0 °F 79% 30.01 in 7.0 mi NNW 17.3 mph 25.3 mph N/A   Mostly Cloudy
1:05 PM 10.4 °F -8.2 °F 5.0 °F 79% 30.01 in 7.0 mi NNW 19.6 mph 25.3 mph N/A   Scattered Clouds
1:25 PM 10.4 °F -6.6 °F 5.0 °F 79% 30.00 in 5.0 mi NNW 16.1 mph - N/A   Mostly Cloudy
1:45 PM 12.2 °F -4.8 °F 5.0 °F 73% 30.00 in 7.0 mi NNW 17.3 mph 21.9 mph N/A   Scattered Clouds
2:05 PM 12.2 °F -4.8 °F 5.0 °F 73% 30.01 in 7.0 mi NNW 17.3 mph 21.9 mph N/A   Mostly Cloudy
2:25 PM 12.2 °F -6.7 °F 6.8 °F 79% 30.02 in 2.5 mi NW 21.9 mph - N/A   Overcast
2:45 PM 10.4 °F -7.7 °F 5.0 °F 79% 30.02 in 2.5 mi North 18.4 mph 21.9 mph N/A   Mostly Cloudy
3:05 PM 8.6 °F -7.0 °F 3.2 °F 79% 30.05 in 10.0 mi North 12.7 mph - N/A   Scattered Clouds
3:25 PM 6.8 °F -9.3 °F 3.2 °F 85% 30.07 in 10.0 mi North 12.7 mph - N/A   Clear
3:45 PM 6.8 °F -7.8 °F 3.2 °F 85% 30.08 in 10.0 mi North 10.4 mph - N/A   Clear
4:05 PM 6.8 °F -10.0 °F 1.4 °F 79% 30.08 in 10.0 mi North 13.8 mph - N/A   Clear
4:25 PM 6.8 °F -8.6 °F 1.4 °F 79% 30.10 in 10.0 mi North 11.5 mph - N/A   Clear
4:45 PM 5.0 °F -10.0 °F 1.4 °F 85% 30.11 in 10.0 mi North 10.4 mph - N/A   Clear
5:05 PM 5.0 °F -9.1 °F -0.4 °F 78% 30.10 in 10.0 mi NNW 9.2 mph - N/A   Mostly Cloudy
5:25 PM 5.0 °F -8.1 °F -0.4 °F 78% 30.11 in 10.0 mi NNW 8.1 mph - N/A   Overcast
5:45 PM 5.0 °F -5.6 °F 1.4 °F 85% 30.13 in 10.0 mi NW 5.8 mph - N/A   Overcast
6:05 PM 5.0 °F -8.1 °F 1.4 °F 85% 30.14 in 10.0 mi NW 8.1 mph - N/A   Overcast
6:25 PM 5.0 °F -10.8 °F 1.4 °F 85% 30.15 in 10.0 mi NNW 11.5 mph - N/A   Overcast
6:45 PM 5.0 °F -13.0 °F -0.4 °F 78% 30.16 in 7.0 mi NW 15.0 mph - N/A   Scattered Clouds
7:05 PM 3.2 °F -13.9 °F -2.2 °F 78% 30.16 in 10.0 mi NNW 12.7 mph - N/A   Clear
7:25 PM 1.4 °F -15.3 °F -2.2 °F 85% 30.18 in 10.0 mi NNW 11.5 mph - N/A   Clear
7:45 PM 1.4 °F -16.1 °F -4.0 °F 78% 30.19 in 10.0 mi NW 12.7 mph - N/A   Clear
8:05 PM 1.4 °F -17.6 °F -5.8 °F 72% 30.20 in 10.0 mi NNW 15.0 mph 20.7 mph N/A   Clear
8:25 PM -0.4 °F -20.5 °F -5.8 °F 78% 30.19 in 10.0 mi NNW 16.1 mph - N/A   Clear
8:45 PM -0.4 °F -17.6 °F -5.8 °F 78% 30.20 in 10.0 mi NNW 11.5 mph - N/A   Scattered Clouds
9:05 PM -0.4 °F -17.6 °F -5.8 °F 78% 30.20 in 10.0 mi NNW 11.5 mph - N/A   Mostly Cloudy
9:25 PM -0.4 °F -18.4 °F -7.6 °F 72% 30.21 in 10.0 mi NNW 12.7 mph - N/A   Scattered Clouds
9:45 PM -0.4 °F -18.4 °F -7.6 °F 72% 30.20 in 10.0 mi NNW 12.7 mph - N/A   Clear
10:05 PM -0.4 °F -18.4 °F -7.6 °F 72% 30.21 in 10.0 mi NNW 12.7 mph 19.6 mph N/A   Scattered Clouds
10:25 PM -2.2 °F -22.2 °F -7.6 °F 78% 30.22 in 10.0 mi NNW 15.0 mph 19.6 mph N/A   Scattered Clouds
10:45 PM -2.2 °F -22.9 °F -7.6 °F 78% 30.22 in 10.0 mi NNW 16.1 mph - N/A   Scattered Clouds
11:05 PM -2.2 °F -18.9 °F -9.4 °F 71% 30.23 in 10.0 mi NNW 10.4 mph - N/A   Clear
11:25 PM -4.0 °F -21.2 °F -7.6 °F 85% 30.23 in 10.0 mi NNW 10.4 mph - N/A   Clear
11:45 PM -4.0 °F -21.2 °F -9.4 °F 78% 30.23 in 10.0 mi North 10.4 mph - N/A   Clear